Time,TemperatureF,DewpointF,PressureIn,WindDirection,WindDirectionDegrees,WindSpeedMPH,WindSpeedGustMPH,Humidity,HourlyPrecipIn,Conditions,Clouds,dailyrainin,SoftwareType,DateUTC
2013-03-07 00:02:00,31.0,29.0,30.21,WNW,289,10.0,11.0,94,0.00,,,0.25,,2013-03-07 05:02:00,
2013-03-07 00:12:00,31.0,29.0,30.21,WNW,289,10.0,11.0,94,0.00,,,0.25,,2013-03-07 05:12:00,
2013-03-07 00:22:00,31.0,29.0,30.22,WNW,292,7.0,11.0,93,0.00,,,0.25,,2013-03-07 05:22:00,
2013-03-07 00:32:00,31.0,29.0,30.21,WNW,292,5.0,10.0,94,0.00,,,0.25,,2013-03-07 05:32:00,
2013-03-07 00:42:00,31.0,29.0,30.21,WNW,292,5.0,10.0,94,0.00,,,0.25,,2013-03-07 05:42:00,
2013-03-07 00:52:00,31.0,29.0,30.22,WNW,287,5.0,10.0,94,0.00,,,0.25,,2013-03-07 05:52:00,
2013-03-07 01:01:00,31.0,29.0,30.22,WNW,287,4.0,9.0,94,0.00,,,0.25,,2013-03-07 06:01:00,
2013-03-07 01:11:00,31.0,29.0,30.22,WNW,287,4.0,9.0,94,0.00,,,0.25,,2013-03-07 06:11:00,
2013-03-07 01:21:00,31.0,29.0,30.22,WNW,287,0.0,6.0,94,0.00,,,0.25,,2013-03-07 06:21:00,
2013-03-07 01:32:00,30.0,28.0,30.22,WNW,287,0.0,0.0,94,0.00,,,0.25,,2013-03-07 06:32:00,
2013-03-07 01:42:00,31.0,29.0,30.22,WNW,287,4.0,6.0,94,0.00,,,0.25,,2013-03-07 06:42:00,
2013-03-07 01:52:00,31.0,29.0,30.22,WNW,287,4.0,6.0,94,0.00,,,0.25,,2013-03-07 06:52:00,
2013-03-07 02:01:00,31.0,29.0,30.22,WNW,287,0.0,3.0,94,0.00,,,0.25,,2013-03-07 07:01:00,
2013-03-07 02:11:00,31.0,29.0,30.22,WNW,287,0.0,3.0,94,0.00,,,0.25,,2013-03-07 07:11:00,
2013-03-07 02:22:00,31.0,29.0,30.22,WNW,287,0.0,0.0,94,0.00,,,0.25,,2013-03-07 07:22:00,
2013-03-07 02:32:00,31.0,29.0,30.22,WNW,287,0.0,0.0,94,0.00,,,0.25,,2013-03-07 07:32:00,
2013-03-07 02:43:00,31.0,29.0,30.22,WNW,287,0.0,0.0,94,0.00,,,0.25,,2013-03-07 07:43:00,
2013-03-07 02:53:00,31.0,30.0,30.22,WNW,287,0.0,0.0,95,0.00,,,0.25,,2013-03-07 07:53:00,
2013-03-07 03:03:00,31.0,30.0,30.22,WNW,287,3.0,5.0,95,0.00,,,0.25,,2013-03-07 08:03:00,
2013-03-07 03:12:00,31.0,30.0,30.22,WNW,287,3.0,5.0,95,0.00,,,0.25,,2013-03-07 08:12:00,
2013-03-07 03:23:00,31.0,30.0,30.22,WNW,287,5.0,7.0,95,0.00,,,0.25,,2013-03-07 08:23:00,
2013-03-07 03:33:00,31.0,30.0,30.23,WNW,287,4.0,6.0,95,0.00,,,0.25,,2013-03-07 08:33:00,
2013-03-07 03:44:00,31.0,30.0,30.23,WNW,287,4.0,6.0,95,0.00,,,0.25,,2013-03-07 08:44:00,
2013-03-07 03:54:00,31.0,30.0,30.23,WNW,287,4.0,7.0,95,0.00,,,0.25,,2013-03-07 08:54:00,
2013-03-07 04:03:00,30.0,29.0,30.23,WNW,284,5.0,9.0,95,0.00,,,0.25,,2013-03-07 09:03:00,
2013-03-07 04:13:00,30.0,29.0,30.23,WNW,284,5.0,9.0,95,0.00,,,0.25,,2013-03-07 09:13:00,
2013-03-07 04:23:00,30.0,29.0,30.24,WNW,288,6.0,9.0,95,0.00,,,0.25,,2013-03-07 09:23:00,
2013-03-07 04:33:00,30.0,29.0,30.24,WNW,289,7.0,10.0,95,0.00,,,0.25,,2013-03-07 09:33:00,
2013-03-07 04:43:00,30.0,29.0,30.24,WNW,289,7.0,10.0,95,0.00,,,0.25,,2013-03-07 09:43:00,
2013-03-07 04:53:00,31.0,30.0,30.24,WNW,287,4.0,10.0,95,0.00,,,0.25,,2013-03-07 09:53:00,
2013-03-07 05:03:00,31.0,30.0,30.25,WNW,285,3.0,9.0,95,0.00,,,0.25,,2013-03-07 10:03:00,
2013-03-07 05:13:00,31.0,30.0,30.25,WNW,285,3.0,9.0,95,0.00,,,0.25,,2013-03-07 10:13:00,
2013-03-07 05:23:00,31.0,30.0,30.25,NW,304,3.0,11.0,95,0.00,,,0.25,,2013-03-07 10:23:00,
2013-03-07 05:33:00,31.0,30.0,30.25,NW,304,3.0,11.0,95,0.00,,,0.25,,2013-03-07 10:33:00,
2013-03-07 05:42:00,31.0,30.0,30.25,NW,304,3.0,11.0,95,0.00,,,0.25,,2013-03-07 10:42:00,
2013-03-07 05:53:00,31.0,30.0,30.26,WNW,286,10.0,13.0,95,0.00,,,0.25,,2013-03-07 10:53:00,
2013-03-07 06:03:00,31.0,30.0,30.27,WNW,299,9.0,12.0,95,0.00,,,0.25,,2013-03-07 11:03:00,
2013-03-07 06:12:00,31.0,30.0,30.27,WNW,299,9.0,12.0,95,0.00,,,0.25,,2013-03-07 11:12:00,
2013-03-07 06:23:00,31.0,30.0,30.27,WNW,299,9.0,12.0,95,0.00,,,0.25,,2013-03-07 11:23:00,
2013-03-07 06:33:00,31.0,29.0,30.27,WNW,300,11.0,13.0,94,0.00,,,0.25,,2013-03-07 11:33:00,
2013-03-07 06:43:00,31.0,29.0,30.27,WNW,300,11.0,13.0,94,0.00,,,0.25,,2013-03-07 11:43:00,
2013-03-07 06:55:00,31.0,29.0,30.27,NW,304,4.0,11.0,94,0.00,,,0.25,,2013-03-07 11:55:00,
2013-03-07 07:03:00,31.0,29.0,30.27,WNW,301,9.0,14.0,94,0.00,,,0.25,,2013-03-07 12:03:00,
2013-03-07 07:12:00,31.0,29.0,30.27,WNW,301,9.0,14.0,94,0.00,,,0.25,,2013-03-07 12:12:00,
2013-03-07 07:23:00,30.0,28.0,30.27,NW,304,10.0,14.0,94,0.00,,,0.25,,2013-03-07 12:23:00,
2013-03-07 07:33:00,31.0,29.0,30.28,WNW,298,9.0,11.0,94,0.00,,,0.25,,2013-03-07 12:33:00,
2013-03-07 07:43:00,31.0,29.0,30.28,WNW,298,9.0,11.0,94,0.00,,,0.25,,2013-03-07 12:43:00,
2013-03-07 07:53:00,31.0,29.0,30.28,WNW,297,0.0,11.0,94,0.00,,,0.25,,2013-03-07 12:53:00,
2013-03-07 08:03:00,31.0,29.0,30.29,NW,305,5.0,11.0,94,0.00,,,0.25,,2013-03-07 13:03:00,
2013-03-07 08:12:00,31.0,29.0,30.29,NW,305,5.0,11.0,94,0.00,,,0.25,,2013-03-07 13:12:00,
2013-03-07 08:23:00,31.0,29.0,30.29,WNW,298,9.0,12.0,94,0.00,,,0.25,,2013-03-07 13:23:00,
2013-03-07 08:42:00,31.0,29.0,30.30,WNW,300,4.0,11.0,94,0.00,,,0.25,,2013-03-07 13:42:00,
2013-03-07 08:53:00,31.0,29.0,30.30,WNW,291,8.0,12.0,94,0.00,,,0.25,,2013-03-07 13:53:00,
2013-03-07 09:02:00,31.0,29.0,30.31,WNW,298,4.0,10.0,94,0.00,,,0.25,,2013-03-07 14:02:00,
2013-03-07 09:12:00,31.0,29.0,30.31,WNW,298,4.0,10.0,94,0.00,,,0.25,,2013-03-07 14:12:00,
2013-03-07 09:23:00,32.0,30.0,30.31,WNW,302,0.0,11.0,93,0.00,,,0.25,,2013-03-07 14:23:00,
2013-03-07 09:33:00,32.0,30.0,30.31,WNW,296,5.0,12.0,92,0.00,,,0.25,,2013-03-07 14:33:00,
2013-03-07 09:42:00,32.0,30.0,30.31,WNW,296,5.0,12.0,92,0.00,,,0.25,,2013-03-07 14:42:00,
2013-03-07 09:54:00,33.0,31.0,30.31,WNW,298,4.0,12.0,91,0.00,,,0.25,,2013-03-07 14:54:00,
2013-03-07 10:03:00,33.0,31.0,30.32,NW,304,8.0,11.0,91,0.01,,,0.26,,2013-03-07 15:03:00,
2013-03-07 10:12:00,33.0,31.0,30.32,NW,304,8.0,11.0,91,0.01,,,0.26,,2013-03-07 15:12:00,
2013-03-07 10:23:00,33.0,31.0,30.32,NW,323,7.0,12.0,91,0.01,,,0.26,,2013-03-07 15:23:00,
2013-03-07 10:32:00,33.0,30.0,30.32,WNW,294,8.0,12.0,90,0.02,,,0.27,,2013-03-07 15:32:00,
2013-03-07 10:42:00,33.0,30.0,30.32,WNW,294,8.0,12.0,90,0.02,,,0.27,,2013-03-07 15:42:00,
2013-03-07 10:53:00,33.0,30.0,30.32,WNW,292,8.0,12.0,90,0.02,,,0.27,,2013-03-07 15:53:00,
2013-03-07 11:02:00,34.0,31.0,30.32,WNW,290,10.0,13.0,90,0.04,,,0.29,,2013-03-07 16:02:00,
2013-03-07 11:13:00,34.0,31.0,30.32,WNW,290,10.0,13.0,90,0.04,,,0.29,,2013-03-07 16:13:00,
2013-03-07 11:23:00,34.0,30.0,30.33,NNW,336,12.0,15.0,85,0.03,,,0.29,,2013-03-07 16:23:00,
2013-03-07 11:33:00,35.0,30.0,30.32,NNW,329,9.0,15.0,81,0.04,,,0.31,,2013-03-07 16:33:00,
2013-03-07 11:43:00,35.0,30.0,30.32,NNW,329,9.0,15.0,81,0.04,,,0.31,,2013-03-07 16:43:00,
2013-03-07 11:53:00,35.0,29.0,30.32,NW,323,11.0,14.0,78,0.05,,,0.32,,2013-03-07 16:53:00,
2013-03-07 12:02:00,37.0,29.0,30.32,NNW,341,9.0,13.0,72,0.05,,,0.34,,2013-03-07 17:02:00,
2013-03-07 12:12:00,37.0,29.0,30.32,NNW,341,9.0,13.0,72,0.05,,,0.34,,2013-03-07 17:12:00,
2013-03-07 12:23:00,38.0,28.0,30.32,NNW,342,5.0,14.0,67,0.06,,,0.35,,2013-03-07 17:23:00,
2013-03-07 12:33:00,37.0,27.0,30.32,North,351,6.0,11.0,68,0.06,,,0.37,,2013-03-07 17:33:00,
2013-03-07 12:43:00,37.0,27.0,30.32,North,351,6.0,11.0,68,0.06,,,0.37,,2013-03-07 17:43:00,
2013-03-07 12:54:00,37.0,27.0,30.32,NW,326,9.0,13.0,68,0.06,,,0.37,,2013-03-07 17:54:00,
2013-03-07 13:04:00,36.0,27.0,30.33,NW,321,9.0,13.0,70,0.06,,,0.38,,2013-03-07 18:04:00,
2013-03-07 13:12:00,36.0,27.0,30.33,NW,321,9.0,13.0,70,0.06,,,0.38,,2013-03-07 18:12:00,
2013-03-07 13:22:00,36.0,28.0,30.33,NW,317,3.0,12.0,73,0.05,,,0.39,,2013-03-07 18:22:00,
2013-03-07 13:32:00,36.0,29.0,30.32,NW,309,7.0,10.0,75,0.04,,,0.40,,2013-03-07 18:32:00,
2013-03-07 13:42:00,36.0,29.0,30.32,NW,309,7.0,10.0,75,0.04,,,0.40,,2013-03-07 18:42:00,
2013-03-07 13:53:00,36.0,28.0,30.32,NW,323,8.0,12.0,72,0.03,,,0.34,,2013-03-07 18:53:00,
2013-03-07 14:03:00,36.0,29.0,30.31,WNW,300,5.0,9.0,74,0.03,,,0.35,,2013-03-07 19:03:00,
2013-03-07 14:12:00,36.0,30.0,30.30,NNW,344,10.0,12.0,79,0.03,,,0.36,,2013-03-07 19:12:00,
2013-03-07 14:23:00,36.0,30.0,30.30,NNW,344,10.0,12.0,79,0.03,,,0.36,,2013-03-07 19:23:00,
2013-03-07 14:35:00,36.0,31.0,30.30,NNW,329,9.0,11.0,82,0.02,,,0.36,,2013-03-07 19:35:00,
2013-03-07 14:43:00,36.0,31.0,30.30,NNW,329,9.0,11.0,82,0.02,,,0.36,,2013-03-07 19:43:00,
2013-03-07 14:53:00,36.0,31.0,30.31,NNW,335,11.0,14.0,82,0.03,,,0.32,,2013-03-07 19:53:00,
2013-03-07 15:02:00,35.0,30.0,30.31,NNW,338,10.0,14.0,82,0.03,,,0.33,,2013-03-07 20:02:00,
2013-03-07 15:13:00,35.0,30.0,30.31,NNW,338,10.0,14.0,82,0.03,,,0.33,,2013-03-07 20:13:00,
2013-03-07 15:22:00,36.0,31.0,30.32,WNW,302,10.0,13.0,82,0.02,,,0.33,,2013-03-07 20:22:00,
2013-03-07 15:33:00,36.0,31.0,30.32,North,349,7.0,11.0,82,0.02,,,0.33,,2013-03-07 20:33:00,
2013-03-07 15:43:00,36.0,31.0,30.32,North,349,7.0,11.0,82,0.02,,,0.33,,2013-03-07 20:43:00,
2013-03-07 15:54:00,37.0,31.0,30.32,NNW,331,3.0,12.0,80,0.02,,,0.29,,2013-03-07 20:54:00,
2013-03-07 16:03:00,37.0,29.0,30.32,NW,321,7.0,11.0,72,0.01,,,0.29,,2013-03-07 21:03:00,
2013-03-07 16:12:00,37.0,29.0,30.32,NW,321,7.0,11.0,72,0.01,,,0.29,,2013-03-07 21:12:00,
2013-03-07 16:23:00,36.0,27.0,30.33,NNW,333,11.0,13.0,70,0.02,,,0.30,,2013-03-07 21:23:00,
2013-03-07 16:33:00,36.0,28.0,30.32,NW,317,8.0,12.0,71,0.02,,,0.30,,2013-03-07 21:33:00,
2013-03-07 16:43:00,36.0,28.0,30.32,NW,317,8.0,12.0,71,0.02,,,0.30,,2013-03-07 21:43:00,
2013-03-07 16:53:00,36.0,28.0,30.32,NW,317,2.0,11.0,71,0.01,,,0.26,,2013-03-07 21:53:00,
2013-03-07 17:02:00,36.0,28.0,30.32,NW,306,4.0,9.0,72,0.01,,,0.26,,2013-03-07 22:02:00,
2013-03-07 17:12:00,36.0,28.0,30.32,NW,306,4.0,9.0,72,0.01,,,0.26,,2013-03-07 22:12:00,
2013-03-07 17:23:00,36.0,29.0,30.32,WNW,301,0.0,11.0,74,0.01,,,0.26,,2013-03-07 22:23:00,
2013-03-07 17:32:00,35.0,28.0,30.32,NW,304,2.0,10.0,74,0.00,,,0.26,,2013-03-07 22:32:00,
2013-03-07 17:43:00,35.0,28.0,30.32,NW,304,2.0,10.0,74,0.00,,,0.26,,2013-03-07 22:43:00,
2013-03-07 17:54:00,35.0,28.0,30.33,WNW,290,7.0,11.0,76,0.00,,,0.24,,2013-03-07 22:54:00,
2013-03-07 18:03:00,35.0,29.0,30.34,WNW,295,4.0,12.0,77,0.00,,,0.24,,2013-03-07 23:03:00,
2013-03-07 18:13:00,35.0,29.0,30.34,WNW,295,4.0,12.0,77,0.00,,,0.24,,2013-03-07 23:13:00,
2013-03-07 18:22:00,35.0,29.0,30.34,NW,304,5.0,7.0,77,0.00,,,0.24,,2013-03-07 23:22:00,
2013-03-07 18:34:00,35.0,28.0,30.34,NW,317,5.0,10.0,76,0.00,,,0.24,,2013-03-07 23:34:00,
2013-03-07 18:43:00,35.0,28.0,30.34,NW,317,5.0,10.0,76,0.00,,,0.24,,2013-03-07 23:43:00,
2013-03-07 18:54:00,34.0,27.0,30.35,NW,314,1.0,10.0,76,0.01,,,0.25,,2013-03-07 23:54:00,
2013-03-07 19:04:00,34.0,28.0,30.35,NW,325,0.0,0.0,77,0.01,,,0.25,,2013-03-08 00:04:00,
2013-03-07 19:13:00,34.0,28.0,30.35,NW,325,0.0,0.0,77,0.01,,,0.25,,2013-03-08 00:13:00,
2013-03-07 19:23:00,34.0,28.0,30.35,NW,325,0.0,0.0,77,0.01,,,0.25,,2013-03-08 00:23:00,
2013-03-07 19:34:00,34.0,27.0,30.36,NW,325,0.0,6.0,76,0.01,,,0.25,,2013-03-08 00:34:00,
2013-03-07 19:44:00,34.0,27.0,30.36,NW,325,0.0,6.0,76,0.01,,,0.25,,2013-03-08 00:44:00,
2013-03-07 19:54:00,34.0,28.0,30.35,NW,325,0.0,0.0,77,0.00,,,0.24,,2013-03-08 00:54:00,
2013-03-07 20:02:00,34.0,27.0,30.36,NW,325,0.0,0.0,76,0.00,,,0.24,,2013-03-08 01:02:00,
2013-03-07 20:11:00,34.0,27.0,30.36,NW,325,0.0,0.0,76,0.00,,,0.24,,2013-03-08 01:11:00,
2013-03-07 20:22:00,34.0,27.0,30.36,NNW,327,5.0,7.0,76,0.00,,,0.24,,2013-03-08 01:22:00,
2013-03-07 20:33:00,34.0,27.0,30.36,NNW,331,2.0,9.0,75,0.00,,,0.24,,2013-03-08 01:33:00,
2013-03-07 20:42:00,34.0,27.0,30.36,NNW,331,2.0,9.0,75,0.00,,,0.24,,2013-03-08 01:42:00,
2013-03-07 20:52:00,33.0,25.0,30.36,NNW,336,0.0,7.0,73,0.00,,,0.24,,2013-03-08 01:52:00,
2013-03-07 21:01:00,33.0,25.0,30.36,NNW,336,0.0,0.0,72,0.00,,,0.24,,2013-03-08 02:01:00,
2013-03-07 21:12:00,33.0,25.0,30.36,NNW,337,2.0,5.0,73,0.00,,,0.24,,2013-03-08 02:12:00,
2013-03-07 21:22:00,33.0,25.0,30.36,NNW,337,2.0,5.0,73,0.00,,,0.24,,2013-03-08 02:22:00,
2013-03-07 21:32:00,33.0,25.0,30.36,NNW,337,0.0,0.0,73,0.00,,,0.24,,2013-03-08 02:32:00,
2013-03-07 21:42:00,33.0,25.0,30.36,NNW,337,0.0,0.0,73,0.00,,,0.24,,2013-03-08 02:42:00,
2013-03-07 21:53:00,33.0,25.0,30.36,NNW,337,0.0,0.0,73,0.00,,,0.24,,2013-03-08 02:53:00,
2013-03-07 22:02:00,32.0,25.0,30.36,NNW,340,0.0,0.0,74,0.00,,,0.24,,2013-03-08 03:02:00,
2013-03-07 22:12:00,32.0,25.0,30.36,NNW,340,0.0,0.0,74,0.00,,,0.24,,2013-03-08 03:12:00,
2013-03-07 22:22:00,32.0,24.0,30.36,NNW,340,0.0,0.0,73,0.00,,,0.24,,2013-03-08 03:22:00,
2013-03-07 22:33:00,32.0,24.0,30.36,NNW,340,0.0,0.0,72,0.00,,,0.24,,2013-03-08 03:33:00,
2013-03-07 22:43:00,32.0,24.0,30.36,NNW,340,0.0,0.0,72,0.00,,,0.24,,2013-03-08 03:43:00,
2013-03-07 22:53:00,31.0,23.0,30.36,NNW,340,0.0,2.0,73,0.00,,,0.23,,2013-03-08 03:53:00,
2013-03-07 23:02:00,31.0,24.0,30.36,NNW,340,0.0,0.0,76,0.00,,,0.23,,2013-03-08 04:02:00,
2013-03-07 23:11:00,31.0,24.0,30.36,NNW,340,0.0,0.0,76,0.00,,,0.23,,2013-03-08 04:11:00,
2013-03-07 23:22:00,30.0,23.0,30.36,NNW,339,0.0,0.0,75,0.00,,,0.23,,2013-03-08 04:22:00,
2013-03-07 23:32:00,30.0,23.0,30.37,NNW,340,0.0,0.0,76,0.00,,,0.23,,2013-03-08 04:32:00,
2013-03-07 23:42:00,30.0,23.0,30.37,NNW,340,0.0,0.0,76,0.00,,,0.23,,2013-03-08 04:42:00,
2013-03-07 23:52:00,29.0,23.0,30.37,NNW,339,0.0,0.0,77,0.00,,,0.23,,2013-03-08 04:52:00,